Surface/Precipitation History
04/25/2017 03:50  to  4/26/2017 03:50
Change End Date:
Date/Time
(MDT)
Sf
Temp Chem Water Layer Surface Precipitation
Sfc Pvt Sub Frz Factor Pct Dpth DpthThk IcePct Cond Salin FI Type Intens Accum Rate
04/26/2017 03:42 Trace Moisture 39.4F - 42F - 5 - - - - 0 mhos 10 - Other Other - -
04/26/2017 03:40 Trace Moisture 39.4F - 42F - 5 - - - - 0 mhos 13 - Other Other - -
04/26/2017 03:30 Trace Moisture 39.4F - 42F - 5 - - - - 0 mhos 12 - Other Other - -
04/26/2017 03:27 Trace Moisture 39.4F - 42F - 5 - - - - 0 mhos 11 - Other Other - -
04/26/2017 03:20 Trace Moisture 39.4F - 42F - 5 - - - - 0 mhos 14 - Other Other - -
04/26/2017 03:12 Trace Moisture 39.4F - 43F - 5 - - - - 0 mhos 12 - Other Other - -
04/26/2017 03:10 Trace Moisture 39.6F - 43F - 5 - - - - 0 mhos 11 - Other Other - -
04/26/2017 03:00 Trace Moisture 39.7F - 43F - 5 - - - - 0 mhos 11 - Other Other - -
04/26/2017 02:57 Trace Moisture 39.7F - 43F - 5 - - - - 0 mhos 12 - Other Other - -
04/26/2017 02:50 Trace Moisture 39.9F - 43F - 5 - - - - 0 mhos 12 - Other Other - -
04/26/2017 02:42 Trace Moisture 40.1F - 43F - 5 - - - - 0 mhos 12 - Other Other - -
04/26/2017 02:40 Trace Moisture 40.1F - 43F - 5 - - - - 0 mhos 12 - Other Other - -
04/26/2017 02:30 Trace Moisture 40.1F - 43F - 5 - - - - 0 mhos 12 - Other Other - -
04/26/2017 02:27 Trace Moisture 40.3F - 43F - 5 - - - - 0 mhos 12 - Other Other - -
04/26/2017 02:20 Trace Moisture 40.3F - 43F - 5 - - - - 0 mhos 12 - Other Other - -
Date/Time
(MDT)
Sf
Temp Chem Water Layer Surface Precipitation
Sfc Pvt Sub Frz Factor Pct Dpth DpthThk IcePct Cond Salin FI Type Intens Accum Rate
04/26/2017 02:12 Trace Moisture 40.1F - 43F - 5 - - - - 0 mhos 13 - Other Other - -
04/26/2017 02:10 Trace Moisture 40.1F - 43F - 5 - - - - 0 mhos 14 - Other Other - -
04/26/2017 02:00 Trace Moisture 40.5F - 43F - 5 - - - - 0 mhos 14 - Other Other - -
04/26/2017 01:57 Trace Moisture 40.5F - 43F - 5 - - - - 0 mhos 14 - Other Other - -
04/26/2017 01:50 Trace Moisture 40.6F - 44F - 5 - - - - 0 mhos 14 - Other Other - -
04/26/2017 01:42 Trace Moisture 40.5F - 44F - 5 - - - - 0 mhos 14 - Other Other - -
04/26/2017 01:40 Trace Moisture 40.6F - 44F - 5 - - - - 0 mhos 13 - Other Other - -
04/26/2017 01:30 Trace Moisture 40.6F - 44F - 5 - - - - 0 mhos 13 - Other Other - -
04/26/2017 01:27 Trace Moisture 40.8F - 44F - 5 - - - - 0 mhos 13 - Other Other - -
04/26/2017 01:20 Trace Moisture 40.8F - 44F - 5 - - - - 0 mhos 13 - Other Other - -
04/26/2017 01:12 Trace Moisture 41.0F - 44F - 5 - - - - 0 mhos 13 - Other Other - -
04/26/2017 01:10 Trace Moisture 41.0F - 44F - 5 - - - - 0 mhos 13 - Other Other - -
04/26/2017 01:00 Trace Moisture 41.2F - 44F - 5 - - - - 0 mhos 13 - Other Other - -
04/26/2017 00:57 Trace Moisture 41.0F - 44F - 5 - - - - 0 mhos 13 - Other Other - -
04/26/2017 00:50 Trace Moisture 41.4F - 45F - 5 - - - - 0 mhos 12 - Other Other - -
Date/Time
(MDT)
Sf
Temp Chem Water Layer Surface Precipitation
Sfc Pvt Sub Frz Factor Pct Dpth DpthThk IcePct Cond Salin FI Type Intens Accum Rate
04/26/2017 00:42 Trace Moisture 41.4F - 45F - 5 - - - - 0 mhos 11 - Other Other - -
04/26/2017 00:39 Trace Moisture 41.4F - 45F - 5 - - - - 0 mhos 10 - Other Other - -
04/26/2017 00:29 Trace Moisture 41.2F - 45F - 5 - - - - 0 mhos 12 - Other Other - -
04/26/2017 00:27 Trace Moisture 41.0F - 45F - 5 - - - - 0 mhos 12 - Other Other - -
04/26/2017 00:19 Trace Moisture 40.6F - 45F - 5 - - - - 0 mhos 12 - Other Other - -
04/26/2017 00:12 Trace Moisture 41.0F - 46F - 5 - - - - 0 mhos 11 - Other Other - -
04/26/2017 00:09 Trace Moisture 41.0F - 46F - 5 - - - - 0 mhos 11 - Other Other - -
04/25/2017 23:59 Trace Moisture 41.9F - 46F - 5 - - - - 0 mhos 11 - Other Other - -
04/25/2017 23:57 Trace Moisture 41.9F - 46F - 5 - - - - 0 mhos 11 - Other Other - -
04/25/2017 23:49 Trace Moisture 43.0F - 46F - 5 - - - - 0 mhos 10 - Other Other - -
04/25/2017 23:42 Trace Moisture 43.5F - 47F - 5 - - - - 0 mhos 10 - Other Other - -
04/25/2017 23:39 Trace Moisture 43.7F - 47F - 5 - - - - 0 mhos 10 - Other Other - -
04/25/2017 23:29 Trace Moisture 43.9F - 47F - 5 - - - - 0 mhos 9 - Other Other - -
04/25/2017 23:27 Trace Moisture 43.9F - 47F - 5 - - - - 0 mhos 9 - Other Other - -
04/25/2017 23:19 Trace Moisture 43.9F - 47F - 5 - - - - 0 mhos 8 - Other Other - -
Date/Time
(MDT)
Sf
Temp Chem Water Layer Surface Precipitation
Sfc Pvt Sub Frz Factor Pct Dpth DpthThk IcePct Cond Salin FI Type Intens Accum Rate
04/25/2017 23:12 Trace Moisture 43.9F - 48F - 5 - - - - 0 mhos 10 - Other Other - -
04/25/2017 23:09 Trace Moisture 43.9F - 48F - 5 - - - - 0 mhos 12 - Other Other - -
04/25/2017 22:59 Trace Moisture 43.7F - 48F - 5 - - - - 0 mhos 11 - Other Other - -
04/25/2017 22:57 Trace Moisture 43.2F - 49F - 5 - - - - 0 mhos 10 - Other Other - -
04/25/2017 22:49 Trace Moisture 42.4F - 49F - 5 - - - - 0 mhos 2 - Other Other - -
04/25/2017 22:42 Dry 46.8F - 49F - - - - - - 0 mhos 0 - Other Other - -
04/25/2017 22:39 Dry 46.8F - 49F - - - - - - 0 mhos 0 - Other Other - -
04/25/2017 22:29 Dry 47.1F - 49F - - - - - - 0 mhos 0 - Other Other - -
04/25/2017 22:27 Dry 47.1F - 50F - - - - - - 0 mhos 0 - Other Other - -
04/25/2017 22:19 Dry 47.1F - 49F - - - - - - 0 mhos 0 - Other Other - -
04/25/2017 22:12 Dry 47.1F - 50F - - - - - - 0 mhos 0 - Other Other - -
04/25/2017 22:09 Dry 47.1F - 50F - - - - - - 0 mhos 0 - Other Other - -
04/25/2017 21:59 Dry 46.9F - 50F - - - - - - 0 mhos 0 - Other Other - -
04/25/2017 21:57 Dry 46.9F - 50F - - - - - - 0 mhos 0 - Other Other - -
04/25/2017 21:49 Dry 46.8F - 50F - - - - - - 0 mhos 0 - Other Other - -
Date/Time
(MDT)
Sf
Temp Chem Water Layer Surface Precipitation
Sfc Pvt Sub Frz Factor Pct Dpth DpthThk IcePct Cond Salin FI Type Intens Accum Rate
04/25/2017 21:42 Dry 46.9F - 51F - - - - - - 0 mhos 0 - Other Other - -
04/25/2017 21:39 Dry 46.9F - 51F - - - - - - 0 mhos 0 - Other Other - -
04/25/2017 21:29 Dry 46.6F - 51F - - - - - - 0 mhos 0 - Other Other - -
04/25/2017 21:27 Dry 46.6F - 51F - - - - - - 0 mhos 0 - Other Other - -
04/25/2017 21:19 Dry 46.6F - 51F - - - - - - 0 mhos 0 - Other Other - -
04/25/2017 21:12 Dry 46.6F - 52F - - - - - - 0 mhos 0 - Other Other - -
04/25/2017 21:09 Dry 46.8F - 52F - - - - - - 0 mhos 0 - Other Other - -
04/25/2017 20:59 Dry 47.1F - 53F - - - - - - 0 mhos 0 - Other Other - -
04/25/2017 20:57 Dry 47.1F - 53F - - - - - - 0 mhos 0 - Other Other - -
04/25/2017 20:49 Dry 47.8F - 53F - - - - - - 0 mhos 0 - Other Other - -
04/25/2017 20:42 Dry 48.4F - 54F - - - - - - 0 mhos 0 - Other Other - -
04/25/2017 20:39 Dry 48.6F - 54F - - - - - - 0 mhos 0 - Other Other - -
04/25/2017 20:28 Dry 49.6F - 55F - - - - - - 0 mhos 0 - Other Other - -
04/25/2017 20:27 Dry 49.6F - 55F - - - - - - 0 mhos 0 - Other Other - -
04/25/2017 20:18 Dry 50.5F - 56F - - - - - - 0 mhos 0 - Other Other - -
Date/Time
(MDT)
Sf
Temp Chem Water Layer Surface Precipitation
Sfc Pvt Sub Frz Factor Pct Dpth DpthThk IcePct Cond Salin FI Type Intens Accum Rate
04/25/2017 20:12 Dry 51.1F - 56F - - - - - - 0 mhos 0 - Other Other - -
04/25/2017 20:08 Dry 51.6F - 56F - - - - - - 0 mhos 0 - Other Other - -
04/25/2017 19:58 Dry 52.9F - 57F - - - - - - 0 mhos 0 - Other Other - -
04/25/2017 19:57 Dry 53.1F - 57F - - - - - - 0 mhos 0 - Other Other - -
04/25/2017 19:48 Dry 54.5F - 58F - - - - - - 0 mhos 0 - Other Other - -
04/25/2017 19:42 Dry 55.8F - 59F - - - - - - 0 mhos 0 - Other Other - -
04/25/2017 19:38 Dry 56.7F - 59F - - - - - - 0 mhos 0 - Other Other - -
04/25/2017 19:28 Dry 59.0F - 59F - - - - - - 0 mhos 0 - Other Other - -
04/25/2017 19:27 Dry 59.2F - 59F - - - - - - 0 mhos 0 - Other Other - -
04/25/2017 19:18 Dry 59.4F - 60F - - - - - - 0 mhos 0 - Other Other - -
04/25/2017 19:12 Dry 61.3F - 60F - - - - - - 0 mhos 0 - Other Other - -
04/25/2017 19:08 Dry 61.5F - 60F - - - - - - 0 mhos 0 - Other Other - -
04/25/2017 18:58 Dry 60.3F - 61F - - - - - - 0 mhos 0 - Other Other - -
04/25/2017 18:57 Dry 60.6F - 61F - - - - - - 0 mhos 0 - Other Other - -
04/25/2017 18:48 Dry 62.8F - 61F - - - - - - 0 mhos 0 - Other Other - -
Date/Time
(MDT)
Sf
Temp Chem Water Layer Surface Precipitation
Sfc Pvt Sub Frz Factor Pct Dpth DpthThk IcePct Cond Salin FI Type Intens Accum Rate
04/25/2017 18:42 Dry 59.5F - 62F - - - - - - 0 mhos 0 - Other Other - -
04/25/2017 18:38 Dry 59.9F - 62F - - - - - - 0 mhos 0 - Other Other - -
04/25/2017 18:28 Dry 61.3F - 63F - - - - - - 0 mhos 0 - Other Other - -
04/25/2017 18:27 Dry 61.7F - 63F - - - - - - 0 mhos 0 - Other Other - -
04/25/2017 18:18 Dry 65.8F - 64F - - - - - - 0 mhos 0 - Other Other - -
04/25/2017 18:12 Dry 68.2F - 64F - - - - - - 0 mhos 0 - Other Other - -
04/25/2017 18:08 Dry 66.9F - 64F - - - - - - 0 mhos 0 - Other Other - -
04/25/2017 17:58 Dry 65.5F - 65F - - - - - - 0 mhos 0 - Other Other - -
04/25/2017 17:57 Dry 66.0F - 65F - - - - - - 0 mhos 0 - Other Other - -
04/25/2017 17:48 Dry 72.3F - 64F - - - - - - 0 mhos 0 - Other Other - -
04/25/2017 17:42 Dry 72.9F - 64F - - - - - - 0 mhos 0 - Other Other - -
04/25/2017 17:38 Dry 70.5F - 64F - - - - - - 0 mhos 0 - Other Other - -
04/25/2017 17:28 Dry 66.2F - 65F - - - - - - 0 mhos 0 - Other Other - -
04/25/2017 17:27 Dry 66.4F - 65F - - - - - - 0 mhos 0 - Other Other - -
04/25/2017 17:18 Dry 67.6F - 66F - - - - - - 0 mhos 0 - Other Other - -
Date/Time
(MDT)
Sf
Temp Chem Water Layer Surface Precipitation
Sfc Pvt Sub Frz Factor Pct Dpth DpthThk IcePct Cond Salin FI Type Intens Accum Rate
04/25/2017 17:12 Dry 67.8F - 66F - - - - - - 0 mhos 0 - Other Other - -
04/25/2017 17:08 Dry 66.4F - 67F - - - - - - 0 mhos 0 - Other Other - -
04/25/2017 16:58 Dry 69.6F - 68F - - - - - - 0 mhos 0 - Other Other - -
04/25/2017 16:57 Dry 69.8F - 68F - - - - - - 0 mhos 0 - Other Other - -
04/25/2017 16:48 Dry 74.1F - 69F - - - - - - 0 mhos 0 - Other Other - -
04/25/2017 16:42 Dry 77.0F - 69F - - - - - - 0 mhos 0 - Other Other - -
04/25/2017 16:38 Dry 77.5F - 69F - - - - - - 0 mhos 0 - Other Other - -
04/25/2017 16:27 Dry 86.5F - 69F - - - - - - 0 mhos 0 - Other Other - -
04/25/2017 16:27 Dry 87.3F - 69F - - - - - - 0 mhos 0 - Other Other - -
04/25/2017 16:17 Dry 87.1F - 68F - - - - - - 0 mhos 0 - Other Other - -
04/25/2017 16:12 Dry 87.4F - 67F - - - - - - 0 mhos 0 - Other Other - -
04/25/2017 16:07 Dry 87.1F - 67F - - - - - - 0 mhos 0 - Other Other - -
04/25/2017 15:57 Dry 87.1F - 65F - - - - - - 0 mhos 0 - Other Other - -
04/25/2017 15:57 Dry 86.9F - 65F - - - - - - 0 mhos 0 - Other Other - -
04/25/2017 15:47 Dry 84.9F - 64F - - - - - - 0 mhos 0 - Other Other - -
Date/Time
(MDT)
Sf
Temp Chem Water Layer Surface Precipitation
Sfc Pvt Sub Frz Factor Pct Dpth DpthThk IcePct Cond Salin FI Type Intens Accum Rate
04/25/2017 15:42 Dry 84.6F - 64F - - - - - - 0 mhos 0 - Other Other - -
04/25/2017 15:37 Dry 83.7F - 63F - - - - - - 0 mhos 0 - Other Other - -
04/25/2017 15:27 Dry 81.7F - 62F - - - - - - 0 mhos 0 - Other Other - -
04/25/2017 15:27 Dry 81.5F - 62F - - - - - - 0 mhos 0 - Other Other - -
04/25/2017 15:17 Dry 77.2F - 61F - - - - - - 0 mhos 0 - Other Other - -
04/25/2017 15:12 Dry 73.8F - 60F - - - - - - 0 mhos 0 - Other Other - -
04/25/2017 15:07 Dry 75.6F - 60F - - - - - - 0 mhos 0 - Other Other - -
04/25/2017 14:57 Dry 74.3F - 59F - - - - - - 0 mhos 0 - Other Other - -
04/25/2017 14:57 Dry 74.3F - 59F - - - - - - 0 mhos 0 - Other Other - -
04/25/2017 14:47 Dry 70.9F - 58F - - - - - - 0 mhos 0 - Other Other - -
04/25/2017 14:42 Dry 67.6F - 58F - - - - - - 0 mhos 1 - Other Other - -
04/25/2017 14:37 Dry 67.3F - 58F - - - - - - 0 mhos 1 - Other Other - -
04/25/2017 14:27 Dry 67.8F - 58F - - - - - - 0 mhos 2 - Other Other - -
04/25/2017 14:27 Dry 67.8F - 58F - - - - - - 0 mhos 2 - Other Other - -
04/25/2017 14:17 Dry 66.0F - 58F - - - - - - 0 mhos 6 - Other Other - -
Date/Time
(MDT)
Sf
Temp Chem Water Layer Surface Precipitation
Sfc Pvt Sub Frz Factor Pct Dpth DpthThk IcePct Cond Salin FI Type Intens Accum Rate
04/25/2017 14:12 Dry 65.5F - 58F - - - - - - 0 mhos 8 - Other Other - -
04/25/2017 14:07 Dry 65.7F - 58F - - - - - - 0 mhos 10 - Other Other - -
04/25/2017 13:57 Trace Moisture 66.2F - 57F - 5 - - - - 0 mhos 13 - Other Other - -
04/25/2017 13:57 Trace Moisture 66.2F - 57F - 5 - - - - 0 mhos 13 - Other Other - -
04/25/2017 13:47 Trace Moisture 68.4F - 57F - 5 - - - - 0 mhos 15 - Other Other - -
04/25/2017 13:42 Trace Moisture 68.9F - 56F - 5 - - - - 0 mhos 13 - Other Other - -
04/25/2017 13:37 Trace Moisture 71.6F - 56F - 10 - - - - 0 mhos 15 - Other Other - -
04/25/2017 13:27 Trace Moisture 70.3F - 54F - 10 - - - - 0 mhos 19 - Other Other - -
04/25/2017 13:27 Trace Moisture 70.3F - 54F - 10 - - - - 0 mhos 19 - Other Other - -
04/25/2017 13:17 Trace Moisture 66.4F - 53F - 20 - - - - 0 mhos 20 - Other Other - -
04/25/2017 13:12 Trace Moisture 66.2F - 52F - 10 - - - - 0 mhos 16 - Other Other - -
04/25/2017 13:06 Trace Moisture 65.5F - 51F - 5 - - - - 0 mhos 12 - Other Other - -
04/25/2017 12:57 Trace Moisture 64.6F - 49F - 5 - - - - 0 mhos 15 - Other Other - -
04/25/2017 12:56 Trace Moisture 64.2F - 49F - 5 - - - - 0 mhos 13 - Other Other - -
04/25/2017 12:46 Trace Moisture 59.4F - 48F - 5 - - - - 0 mhos 14 - Other Other - -
Date/Time
(MDT)
Sf
Temp Chem Water Layer Surface Precipitation
Sfc Pvt Sub Frz Factor Pct Dpth DpthThk IcePct Cond Salin FI Type Intens Accum Rate
04/25/2017 12:42 Trace Moisture 58.8F - 47F - 5 - - - - 0 mhos 11 - Other Other - -
04/25/2017 12:36 Trace Moisture 57.2F - 46F - 5 - - - - 0 mhos 13 - Other Other - -
04/25/2017 12:27 Trace Moisture 55.6F - 45F - 5 - - - - 0 mhos 10 - Other Other - -
04/25/2017 12:26 Trace Moisture 55.2F - 45F - 5 - - - - 0 mhos 11 - Other Other - -
04/25/2017 12:16 Trace Moisture 55.2F - 44F - 5 - - - - 0 mhos 11 - Other Other - -
04/25/2017 12:12 Trace Moisture 54.5F - 43F - 5 - - - - 0 mhos 10 - Other Other - -
04/25/2017 12:06 Trace Moisture 54.7F - 42F - 5 - - - - 0 mhos 6 - Other Other - -
04/25/2017 11:57 Trace Moisture 49.1F - 41F - 5 - - - - 0 mhos 7 - Other Other - -
04/25/2017 11:56 Trace Moisture 48.9F - 41F - 5 - - - - 0 mhos 8 - Other Other - -
04/25/2017 11:46 Trace Moisture 48.2F - 40F - 5 - - - - 0 mhos 7 - Other Other - -
04/25/2017 11:42 Trace Moisture 48.0F - 39F - 5 - - - - 0 mhos 8 - Other Other - -
04/25/2017 11:36 Trace Moisture 48.4F - 38F - 5 - - - - 0 mhos 8 - Other Other - -
04/25/2017 11:27 Trace Moisture 47.3F - 37F - 5 - - - - 0 mhos 9 - Other Other - -
04/25/2017 11:26 Trace Moisture 46.9F - 37F - 5 - - - - 0 mhos 9 - Other Other - -
04/25/2017 11:16 Trace Moisture 42.6F - 36F - 10 - - - - 0 mhos 11 - Other Other - -
Date/Time
(MDT)
Sf
Temp Chem Water Layer Surface Precipitation
Sfc Pvt Sub Frz Factor Pct Dpth DpthThk IcePct Cond Salin FI Type Intens Accum Rate
04/25/2017 11:12 Trace Moisture 41.9F - 36F - 20 - - - - 0 mhos 12 - Other Other - -
04/25/2017 11:06 Trace Moisture 39.2F - 36F - 80 - - - - 0 mhos 21 - Other Other - -
04/25/2017 10:57 Dry 36.0F - 36F - - - - - - 0 mhos 6 - Other Other - -
04/25/2017 10:56 Wet 35.4F - 36F 32F 5 0% 0.00 in - 0% 0 mhos 6 - Other Other - -
04/25/2017 10:42 Trace Moisture 33.1F - 36F - 55 - - - - 0 mhos 6 - None None - -
04/25/2017 10:41 Trace Moisture 33.1F - 36F - 65 - - - - 0 mhos 6 - None None - -
04/25/2017 10:31 Trace Moisture 32.9F - 36F - 40 - - - - 0 mhos 7 - None None - -
04/25/2017 10:27 Trace Moisture 32.9F - 36F - 15 - - - - 0 mhos 2 - None None - -
04/25/2017 10:21 Trace Moisture 33.1F - 36F - 20 - - - - 0 mhos 4 - None None - -
04/25/2017 10:12 Trace Moisture 32.9F - 36F - 35 - - - - 0 mhos 2 - None None - -
04/25/2017 10:11 Trace Moisture 32.9F - 36F - 35 - - - - 0 mhos 2 - None None - -
04/25/2017 10:01 Trace Moisture 33.4F - 36F - 20 - - - - 0 mhos 3 - None None - -
04/25/2017 09:57 Trace Moisture 33.4F - 36F - 5 - - - - 0 mhos 4 - None None - -
04/25/2017 09:51 Trace Moisture 33.4F - 36F - 5 - - - - 0 mhos 3 - None None - -
04/25/2017 09:42 Trace Moisture 33.3F - 36F - 20 - - - - 0 mhos 3 - None None - -
Date/Time
(MDT)
Sf
Temp Chem Water Layer Surface Precipitation
Sfc Pvt Sub Frz Factor Pct Dpth DpthThk IcePct Cond Salin FI Type Intens Accum Rate
04/25/2017 09:41 Trace Moisture 33.3F - 36F - 5 - - - - 0 mhos 3 - None None - -
04/25/2017 09:31 Trace Moisture 33.1F - 36F - 5 - - - - 0 mhos 1 - None None - -
04/25/2017 09:27 Trace Moisture 32.9F - 36F - 10 - - - - 0 mhos 3 - None None - -
04/25/2017 09:20 Trace Moisture 32.9F - 36F - 10 - - - - 0 mhos 2 - None None - -
04/25/2017 09:12 Trace Moisture 33.1F - 36F - 5 - - - - 0 mhos 2 - None None - -
04/25/2017 09:10 Trace Moisture 32.9F - 36F - 5 - - - - 0 mhos 2 - None None - -
04/25/2017 09:00 Trace Moisture 33.1F - 36F - 15 - - - - 0 mhos 3 - None None - -
04/25/2017 08:57 Trace Moisture 33.1F - 36F - 5 - - - - 0 mhos 2 - None None - -
04/25/2017 08:50 Trace Moisture 33.1F - 36F - 5 - - - - 0 mhos 2 - None None - -
04/25/2017 08:42 Trace Moisture 33.4F - 36F - 20 - - - - 0 mhos 3 - None None - -
04/25/2017 08:40 Trace Moisture 33.4F - 36F - 20 - - - - 0 mhos 3 - None None - -
04/25/2017 08:30 Trace Moisture 33.4F - 36F - 5 - - - - 0 mhos 3 - None None - -
04/25/2017 08:27 Trace Moisture 33.4F - 37F - 5 - - - - 0 mhos 3 - None None - -
04/25/2017 08:20 Trace Moisture 33.6F - 37F - 15 - - - - 0 mhos 3 - None None - -
04/25/2017 08:12 Trace Moisture 33.6F - 37F - 10 - - - - 0 mhos 3 - None None - -
Date/Time
(MDT)
Sf
Temp Chem Water Layer Surface Precipitation
Sfc Pvt Sub Frz Factor Pct Dpth DpthThk IcePct Cond Salin FI Type Intens Accum Rate
04/25/2017 08:10 Trace Moisture 33.6F - 37F - 10 - - - - 0 mhos 3 - None None - -
04/25/2017 08:00 Trace Moisture 33.6F - 37F - 10 - - - - 0 mhos 3 - None None - -
04/25/2017 07:57 Trace Moisture 33.6F - 37F - 5 - - - - 0 mhos 3 - None None - -
04/25/2017 07:50 Trace Moisture 33.8F - 37F - 30 - - - - 0 mhos 3 - None None - -
04/25/2017 07:42 Trace Moisture 33.6F - 37F - 35 - - - - 0 mhos 3 - None None - -
04/25/2017 07:40 Trace Moisture 33.6F - 37F - 20 - - - - 0 mhos 3 - None None - -
04/25/2017 07:30 Trace Moisture 33.4F - 37F - 10 - - - - 0 mhos 3 - None None - -
04/25/2017 07:27 Trace Moisture 33.4F - 38F - 5 - - - - 0 mhos 3 - None None - -
04/25/2017 07:20 Trace Moisture 33.4F - 38F - 30 - - - - 0 mhos 3 - None None - -
04/25/2017 07:12 Trace Moisture 33.4F - 38F - 10 - - - - 0 mhos 3 - None None - -
04/25/2017 07:10 Trace Moisture 33.6F - 38F - 5 - - - - 0 mhos 3 - None None - -
04/25/2017 07:00 Trace Moisture 33.6F - 38F - 5 - - - - 0 mhos 3 - None None - -
04/25/2017 06:57 Trace Moisture 33.6F - 38F - 5 - - - - 0 mhos 3 - None None - -
04/25/2017 06:50 Trace Moisture 33.8F - 39F - 15 - - - - 0 mhos 2 - None None - -
04/25/2017 06:42 Trace Moisture 33.8F - 39F - 5 - - - - 0 mhos 2 - None None - -
Date/Time
(MDT)
Sf
Temp Chem Water Layer Surface Precipitation
Sfc Pvt Sub Frz Factor Pct Dpth DpthThk IcePct Cond Salin FI Type Intens Accum Rate
04/25/2017 06:40 Trace Moisture 34.2F - 39F - 5 - - - - 0 mhos 2 - None None - -
04/25/2017 06:30 Trace Moisture 34.5F - 40F - 5 - - - - 0 mhos 2 - None None - -
04/25/2017 06:27 Trace Moisture 34.7F - 40F - 5 - - - - 0 mhos 2 - None None - -
04/25/2017 06:20 Trace Moisture 35.8F - 40F - 5 - - - - 0 mhos 2 - None None - -
04/25/2017 06:12 Trace Moisture 36.5F - 41F - 5 - - - - 0 mhos 2 - None None - -
04/25/2017 06:10 Trace Moisture 36.5F - 41F - 5 - - - - 0 mhos 2 - None None - -
04/25/2017 06:00 Trace Moisture 37.0F - 41F - 5 - - - - 0 mhos 2 - None None - -
04/25/2017 05:57 Trace Moisture 36.9F - 41F - 5 - - - - 0 mhos 2 - None None - -
04/25/2017 05:50 Trace Moisture 37.2F - 42F - 5 - - - - 0 mhos 2 - None None - -
04/25/2017 05:42 Trace Moisture 38.3F - 42F - 5 - - - - 0 mhos 2 - None None - -
04/25/2017 05:40 Trace Moisture 38.5F - 42F - 5 - - - - 0 mhos 3 - None None - -
04/25/2017 05:29 Trace Moisture 39.0F - 42F - 5 - - - - 0 mhos 3 - None None - -
04/25/2017 05:27 Trace Moisture 38.8F - 42F - 5 - - - - 0 mhos 3 - None None - -
04/25/2017 05:19 Trace Moisture 39.4F - 42F - 5 - - - - 0 mhos 3 - None None - -
04/25/2017 05:12 Trace Moisture 39.4F - 42F - 5 - - - - 0 mhos 3 - None None - -
Date/Time
(MDT)
Sf
Temp Chem Water Layer Surface Precipitation
Sfc Pvt Sub Frz Factor Pct Dpth DpthThk IcePct Cond Salin FI Type Intens Accum Rate
04/25/2017 05:09 Trace Moisture 39.4F - 42F - 5 - - - - 0 mhos 3 - None None - -
04/25/2017 04:59 Trace Moisture 39.9F - 42F - 5 - - - - 0 mhos 5 - None None - -
04/25/2017 04:57 Trace Moisture 39.7F - 42F - 5 - - - - 0 mhos 6 - None None - -
04/25/2017 04:49 Trace Moisture 40.1F - 42F - 10 - - - - 0 mhos 7 - None None - -
04/25/2017 04:42 Trace Moisture 40.3F - 42F - 5 - - - - 0 mhos 8 - None None - -
04/25/2017 04:39 Trace Moisture 40.1F - 42F - 5 - - - - 0 mhos 9 - None None - -
04/25/2017 04:29 Trace Moisture 40.3F - 43F - 5 - - - - 0 mhos 12 - None None - -
04/25/2017 04:27 Trace Moisture 40.3F - 43F - 5 - - - - 0 mhos 12 - None None - -
04/25/2017 04:19 Trace Moisture 40.5F - 43F - 5 - - - - 0 mhos 16 - None None - -
04/25/2017 04:12 Trace Moisture 40.5F - 43F - 5 - - - - 0 mhos 16 - None None - -
04/25/2017 04:09 Trace Moisture 40.5F - 43F - 5 - - - - 0 mhos 16 - None None - -
04/25/2017 03:59 Trace Moisture 40.6F - 43F - 5 - - - - 0 mhos 16 - None None - -
04/25/2017 03:57 Trace Moisture 40.6F - 43F - 5 - - - - 0 mhos 16 - None None - -
Change End Date:

Copyright © 1998-2015 Vaisala, Inc.
All Rights Reserved
Send comments about the data to:
SCAN Web ® is a registered trademark of Vaisala, Inc.
SCAN Web Version 6.0